Regional Weather Roundup
Issued by NWS

Home | Current Version | Previous Version | Graphics & Text | Print | Product List | Glossary On
Versions: 1 2 3 4 5 6 7 8 9 10 11 12 13 14 15 16 17 18 19 20 21 22 23 24 25 26 27 28 29 30 31 32 33 34 35 36 37 38 39 40 41 42 43 44 45 46 47 48 49 50
000
ASUS43 KDTX 311110
RWRMI
MICHIGAN HOURLY REGIONAL WEATHER ROUNDUP
NATIONAL WEATHER SERVICE DETROIT/PONTIAC MI
700 AM EDT FRI JUL 31 2015

NOTE: "FAIR" INDICATES FEW OR NO CLOUDS BELOW 12,000 FEET WITH NO
SIGNIFICANT WEATHER AND/OR OBSTRUCTION TO VISIBILITY.

MIZ047>049-052>055-059>063-066>070-074>076-081>083-311200-
SOUTHEAST LOWER MICHIGAN

CITY           SKY/WX    TMP DP  RH WIND       PRES   REMARKS
ADRIAN         CLEAR     64  58  80 W5        29.98S
ALMA           CLEAR     63  60  88 SW6       29.94S
ANN ARBOR      CLEAR     63  58  83 W7        29.96S
BAD AXE        CLEAR     59  57  94 S3        29.91R
CARO           CLEAR     59  58  96 CALM      29.92S
DETROIT CITY   CLEAR     68  57  68 W6        29.94S
DETROIT        CLEAR     67  58  72 W6        29.95S
FLINT          CLEAR     65  58  78 SW5       29.94S
GROSSE ILE     CLEAR     68  61  77 W5        29.94R
HILLSDALE      CLEAR     65  61  86 W6        30.00S
HOWELL         CLEAR     62  58  89 SW6       29.96S

CITY           SKY/WX    TMP DP  RH WIND       PRES   REMARKS
JACKSON        CLEAR     61  58  90 W3        29.98S
LAMBERTVILLE   CLEAR     65  58  79 CALM      29.97S
LANSING        CLEAR     64  58  80 W7        29.96F
LAPEER         FAIR      64  59  82 W5        29.94S
MASON          CLEAR     62  57  83 SW3       29.97S
MONROE         CLEAR     61  58  89 CALM      29.95R
MT. CLEMENS    CLEAR     68  59  74 W8        29.91S
PONTIAC        CLEAR     65  58  78 W5        29.94S
PORT HOPE        N/A     64  60  87 SW6       29.87R
PORT HURON     CLEAR     63  59  88 CALM      29.92S
TRI CITIES     CLEAR     64  59  83 SW7       29.92F
MIDLAND        FAIR      63  59  87 CALM      29.91S
TROY           CLEAR     69  58  68 W7        29.95S
SAGINAW HB     CLEAR     63  59  88 SW6       29.91S
$$
MIZ043>046-050>051-056>058-064>065-071>073-077>080-311200-
SOUTHWEST LOWER MICHIGAN

CITY           SKY/WX    TMP DP  RH WIND       PRES   REMARKS
BATTLE CREEK   CLEAR     65  59  81 SW6       29.99S
BENTON HARBOR  CLEAR     71  63  75 W9        29.99S
BIG RAPIDS     CLEAR     65  60  84 W7        29.93S
COLDWATER      CLEAR     62  59  90 SW6       30.00S
FREMONT        FAIR      61  61  97 SW3       29.94S
HOLLAND        CLEAR     71  61  70 W8        29.97F
GRAND RAPIDS   PTCLDY    65  60  84 W8        29.97S
IONIA          FAIR      64  59  86 W8        29.95S
KALAMAZOO      CLEAR     64  59  83 CALM      30.00S
LUDINGTON      CLEAR     71  64  80 W6        29.92S
MARSHALL       CLEAR     60  57  90 CALM      29.98S
MOUNT PLEASANT CLEAR     66  59  78 W6        29.92S
MUSKEGON       PTCLDY    71  59  65 W9        29.95F
SOUTH HAVEN    CLEAR     71  62  72 W7        29.98F
$$
MIZ016>042-311200-
NORTHERN LOWER MICHIGAN

CITY           SKY/WX    TMP DP  RH WIND       PRES   REMARKS
ALPENA         CLEAR     62  55  77 SW7       29.84F
BEAVER ISLAND  PTCLDY    65  62  91 SW6       29.83S
BELLAIRE       CLEAR     58  55  91 CALM      29.87S
CADILLAC       CLEAR     60  58  94 SW5       29.92R
CHARLEVOIX     CLEAR     67  63  87 W9        29.87S
FRANKFORT      PTCLDY    67  62  84 NW7       29.89S
GAYLORD        CLEAR     60  57  89 W5        29.88S
GRAYLING       PTCLDY    63  56  80 W7        29.89F
HARBOR SPRINGS PTCLDY    65  62  87 SW5       29.84S
HOUGHTON LAKE  CLEAR     65  58  78 W9        29.90F
MANISTEE       CLEAR     66  57  72 W9        29.91S
OSCODA         CLEAR     61  58  87 SW9       29.86S
PELLSTON       CLEAR     55  52  89 CALM      29.84S
ROGERS CITY    CLEAR     65  58  80 SW9       29.84S
TRAVERSE CITY  PTCLDY    66  59  78 SW5       29.86S
$$
MIZ007>008-015-311200-
EASTERN UPPER MICHIGAN

CITY           SKY/WX    TMP DP  RH WIND       PRES   REMARKS
KINROSS        CLEAR     59  57  94 W5        29.82S
MACKINAC ISLAN CLEAR     65  61  86 SW8       29.82S
MUNISING         N/A     67  55  65 W9        29.81R
$$
MIZ004>006-011>014-085-311200-
CENTRAL UPPER MICHIGAN

CITY           SKY/WX    TMP DP  RH WIND       PRES   REMARKS
MANISTIQUE     CLEAR     63  57  82 W5        29.82S
ESCANABA       CLEAR     61  55  82 W8        29.84S
MENOMINEE      CLEAR     63  54  72 W6        29.87F
SAWYER-GWINN   CLEAR     57  54  88 W5        29.83F
$$
MIZ001>003-009>011-084-311200-
WESTERN UPPER MICHIGAN

CITY           SKY/WX    TMP DP  RH WIND       PRES   REMARKS
IRON MOUNTAIN  CLEAR     61  55  81 W5        29.86F
HOUGHTON       PTCLDY    59  55  87 W14       29.83R
COPPER HARBOR    N/A     65  52  62 NW10      29.79R
IRONWOOD       PTCLDY    61  55  82 W8        29.88R
$$

ABBREVIATIONS USED IN REMARKS
   TC - TEMPERATURE IN CELSIUS
  WCI - WIND CHILL INDEX
   HX - HEAT INDEX
  VSB - VISIBILITY




USA.gov is the U.S. government's official web portal to all federal, state and local government web resources and services.